Starlink 32898

operational
NORAD ID: 62998 Int'l Des: 2025-031 Owner: SPXS Country: US Constellation: starlink
LEOCIRCULAR

About Starlink 32898

Description loading...

Live Position

Loading 3D Globe...

Upcoming Passes

Altitude History

Altitude vs Time

uPlot chart will show altitude changes over time

Two-Line Element Set

1 62998U 25031T 25349.15220605 .00016739 00000-0 61655-3 0 9991
2 62998 43.0029 260.9950 0001361 266.8032 93.2664 15.27572208 48161
Epoch: Dec 15, 2025 • Age: 39 hours

Current Status

Altitude 482.9 km
Velocity 7.63 km/s
Sub-Earth Point -2.42°S, 119.52°W
Launch Date Feb 11, 2025
Age 0.8 years
Type internet

Technical Details

Classification Payload
Mass 730.00 kg
Dry Mass 700.00 kg
Total Mass 730.00 kg
Length 0.30 m
Diameter 4.10 m
Span 29.00 m
Shape Box + pan
Manufacturer SPXS
Bus Type Starlink V2M
Phase Status In Orbit
Owner/State SPXS/US

Large Constellations

Loading constellations...